Find GOES 11

NORAD ID: 26352 Int'l Des: 2000-022 Owner: NOAA Country: US operational
HEOCIRCULAR

当前视图

正在加载3D地球...

关于 GOES 11

正在加载描述...

即将过境

Passes for default location (London). Set your location on the main map for personalized predictions.

高度历史

Loading altitude history...

两行轨道根数

1 26352U 00022A 26151.22434809 .00000028 00000-0 00000+0 0 9998
2 26352 11.7656 46.6008 0003173 264.7814 273.2476 0.99039882 52305
Epoch: May 31, 2026 • Age: 5 hours

当前状态

高度 36124.3 km
速度 3.06 km/s
星下点 -10.89°S, 106.16°W
发射日期 May 3, 2000
运行时间 26 years
类型 weather

技术详情

分类 Payload
质量 2105.00 kg
干质量 980.00 kg
总质量 2105.00 kg
长度 4.60 m
直径 2.50 m
跨度 26.90 m
形状 Box + 2 Pan
制造商 LOR
平台类型 FS-1300
阶段状态 In Orbit
所有者/国家 NOAA/US

Most Searched